"read_dt","SO2 (ppb)","flags","PMT voltage (V)","lamp voltage (V)","lamp intensity (Hz)","internal temp (C)","react chamber temp (C)","sample flow (l/min)","pres (mmHg)","SO2 bkg (ppb)","SO2 coefficient"
2018-08-10 00:00:00,-4.108E-01,4C000000*,-702.6,960.554,90,32.3,44.9,0.409,736.6,2.1,1.050*
2018-08-10 00:01:00,-3.579E-01,4C000000*,-702.6,960.554,91,32.4,45.1,0.408,736.3,2.1,1.050*
2018-08-10 00:02:00,-2.853E-01,4C000000*,-702.6,960.554,89,32.3,44.9,0.409,736.6,2.1,1.050*
2018-08-10 00:03:00,-3.527E-01,4C000000*,-702.6,961.362,89,32.4,45.1,0.408,736.6,2.1,1.050*
2018-08-10 00:04:00,-3.335E-01,4C000000*,-702.3,960.554,89,32.3,44.9,0.409,736.6,2.1,1.050*
2018-08-10 00:05:00,-3.544E-01,4C000000*,-702.3,960.958,90,32.3,45.2,0.409,736.6,2.1,1.050*
2018-08-10 00:06:00,-3.406E-01,4C000000*,-702.6,959.341,90,32.4,45.0,0.408,736.6,2.1,1.050*
2018-08-10 00:07:00,-2.948E-01,4C000000*,-702.6,960.554,90,32.4,44.9,0.409,736.6,2.1,1.050*
2018-08-10 00:08:00,-2.496E-01,4C000000*,-702.3,960.958,91,32.4,45.1,0.408,736.6,2.1,1.050*
2018-08-10 00:09:00,-2.612E-01,4C000000*,-702.6,959.341,89,32.4,44.9,0.409,736.3,2.1,1.050*
2018-08-10 00:10:00,-2.782E-01,4C000000*,-702.6,961.362,89,32.4,45.2,0.409,736.3,2.1,1.050*
2018-08-10 00:11:00,-2.643E-01,4C000000*,-702.6,960.150,91,32.4,44.9,0.409,736.3,2.1,1.050*
2018-08-10 00:12:00,-3.815E-01,4C000000*,-702.3,960.958,90,32.4,45.2,0.408,736.6,2.1,1.050*
2018-08-10 00:13:00,-2.821E-01,4C000000*,-702.6,959.745,89,32.4,45.0,0.409,736.3,2.1,1.050*
2018-08-10 00:14:00,-3.389E-01,4C000000*,-702.3,960.150,87,32.4,45.1,0.409,736.3,2.1,1.050*
2018-08-10 00:15:00,-3.384E-01,4C000000*,-702.3,960.958,89,32.4,45.0,0.408,736.3,2.1,1.050*
2018-08-10 00:16:00,-2.993E-01,4C000000*,-702.3,960.150,89,32.4,44.9,0.409,736.3,2.1,1.050*
2018-08-10 00:17:00,-3.043E-01,4C000000*,-702.6,958.937,89,32.4,45.3,0.409,736.3,2.1,1.050*
2018-08-10 00:18:00,-2.227E-01,4C000000*,-702.6,960.150,90,32.4,44.9,0.409,736.3,2.1,1.050*
2018-08-10 00:19:00,-3.369E-01,4C000000*,-703.0,960.958,91,32.4,45.2,0.408,736.6,2.1,1.050*
2018-08-10 00:20:00,-2.421E-01,4C000000*,-702.6,959.745,91,32.4,44.9,0.408,736.3,2.1,1.050*
2018-08-10 00:21:00,-2.973E-01,4C000000*,-702.6,958.937,89,32.4,45.1,0.409,736.6,2.1,1.050*
2018-08-10 00:22:00,-2.956E-01,4C000000*,-702.6,960.150,89,32.4,45.0,0.409,736.3,2.1,1.050*
2018-08-10 00:23:00,-3.533E-01,4C000000*,-702.6,960.554,89,32.4,44.9,0.408,736.3,2.1,1.050*
2018-08-10 00:24:00,-3.329E-01,4C000000*,-702.6,960.150,90,32.4,45.2,0.409,736.3,2.1,1.050*
2018-08-10 00:25:00,-3.485E-01,4C000000*,-702.6,961.362,90,32.4,44.8,0.408,736.3,2.1,1.050*
2018-08-10 00:26:00,-3.330E-01,4C000000*,-702.6,960.554,90,32.4,45.2,0.409,736.3,2.1,1.050*
2018-08-10 00:27:00,-3.397E-01,4C000000*,-702.6,960.958,90,32.4,44.9,0.408,736.3,2.1,1.050*
2018-08-10 00:28:00,-2.733E-01,4C000000*,-702.6,961.362,90,32.4,45.1,0.408,736.3,2.1,1.050*
2018-08-10 00:29:00,-3.250E-01,4C000000*,-702.6,961.767,89,32.4,45.2,0.409,736.3,2.1,1.050*
2018-08-10 00:30:00,-3.426E-01,4C000000*,-702.6,960.958,90,32.4,44.8,0.408,736.3,2.1,1.050*
2018-08-10 00:31:00,-3.752E-01,4C000000*,-702.6,961.362,90,32.5,45.2,0.409,736.6,2.1,1.050*
2018-08-10 00:32:00,-2.921E-01,4C000000*,-702.3,960.150,89,32.5,44.9,0.408,736.3,2.1,1.050*
2018-08-10 00:33:00,-2.311E-01,4C000000*,-703.0,959.341,89,32.4,45.1,0.409,736.3,2.1,1.050*
2018-08-10 00:34:00,-2.631E-01,4C000000*,-702.3,960.554,91,32.5,45.0,0.408,736.3,2.1,1.050*
2018-08-10 00:35:00,-2.949E-01,4C000000*,-702.3,960.554,90,32.4,44.9,0.408,736.3,2.1,1.050*
2018-08-10 00:36:00,-3.477E-01,4C000000*,-703.0,961.362,89,32.5,45.2,0.409,736.3,2.1,1.050*
2018-08-10 00:37:00,-3.271E-01,4C000000*,-702.3,960.150,89,32.5,44.8,0.408,736.3,2.1,1.050*
2018-08-10 00:38:00,-2.818E-01,4C000000*,-702.6,960.150,91,32.5,45.2,0.409,736.3,2.1,1.050*
2018-08-10 00:39:00,-2.490E-01,4C000000*,-702.6,960.554,90,32.4,45.0,0.409,736.3,2.1,1.050*
2018-08-10 00:40:00,-3.600E-01,4C000000*,-702.3,960.958,90,32.5,45.0,0.408,736.3,2.1,1.050*
2018-08-10 00:41:00,-3.211E-01,4C000000*,-702.6,960.150,90,32.5,45.1,0.409,736.0,2.1,1.050*
2018-08-10 00:42:00,-3.691E-01,4C000000*,-702.3,962.171,91,32.5,45.0,0.409,736.3,2.1,1.050*
2018-08-10 00:43:00,-4.118E-01,4C000000*,-702.6,960.958,90,32.5,45.2,0.408,736.3,2.1,1.050*
2018-08-10 00:44:00,-2.882E-01,4C000000*,-703.0,960.554,89,32.5,44.9,0.408,736.3,2.1,1.050*
2018-08-10 00:45:00,-3.287E-01,4C000000*,-702.6,963.384,91,32.5,45.2,0.409,736.3,2.1,1.050*
2018-08-10 00:46:00,-3.892E-01,4C000000*,-702.6,961.767,89,32.5,44.9,0.408,736.3,2.1,1.050*
2018-08-10 00:47:00,-3.748E-01,4C000000*,-702.6,960.958,89,32.5,45.1,0.408,736.3,2.1,1.050*
2018-08-10 00:48:00,-3.463E-01,4C000000*,-702.6,961.362,90,32.5,45.1,0.409,736.3,2.1,1.050*
2018-08-10 00:49:00,-2.850E-01,4C000000*,-703.0,960.958,90,32.5,44.9,0.409,736.3,2.1,1.050*
2018-08-10 00:50:00,-2.971E-01,4C000000*,-702.6,961.362,89,32.5,45.1,0.408,736.0,2.1,1.050*
2018-08-10 00:51:00,-2.907E-01,4C000000*,-702.6,960.958,90,32.5,44.9,0.408,736.0,2.1,1.050*
2018-08-10 00:52:00,-2.484E-01,4C000000*,-703.0,960.150,90,32.5,45.1,0.408,736.0,2.1,1.050*
2018-08-10 00:53:00,-3.434E-01,4C000000*,-702.3,961.767,90,32.5,44.9,0.408,736.0,2.1,1.050*
2018-08-10 00:54:00,-3.308E-01,4C000000*,-702.3,961.767,90,32.5,45.2,0.409,736.0,2.1,1.050*
2018-08-10 00:55:00,-2.339E-01,4C000000*,-702.6,961.362,89,32.6,45.0,0.408,736.0,2.1,1.050*
2018-08-10 00:56:00,-2.931E-01,4C000000*,-702.6,960.958,91,32.5,45.0,0.409,736.0,2.1,1.050*
2018-08-10 00:57:00,-2.376E-01,4C000000*,-702.6,960.958,90,32.6,45.1,0.409,736.0,2.1,1.050*
2018-08-10 00:58:00,-2.489E-01,4C000000*,-702.3,960.554,91,32.5,44.8,0.408,736.0,2.1,1.050*
2018-08-10 00:59:00,-2.034E-01,4C000000*,-702.3,961.362,90,32.5,45.1,0.409,736.3,2.1,1.050*
2018-08-10 01:00:00,-3.737E-01,4C000000*,-702.6,960.554,89,32.5,45.1,0.408,736.0,2.1,1.050*
2018-08-10 01:01:00,-3.908E-01,4C000000*,-702.6,960.150,91,32.5,45.0,0.408,736.3,2.1,1.050*
2018-08-10 01:02:00,-3.781E-01,4C000000*,-702.6,960.958,91,32.5,45.1,0.408,736.0,2.1,1.050*
2018-08-10 01:03:00,-3.687E-01,4C000000*,-702.6,959.745,90,32.6,44.9,0.408,736.3,2.1,1.050*
2018-08-10 01:04:00,-2.510E-01,4C000000*,-702.6,961.362,89,32.6,45.1,0.409,736.3,2.1,1.050*
2018-08-10 01:05:00,-3.095E-01,4C000000*,-702.6,960.958,90,32.6,44.9,0.408,736.0,2.1,1.050*
2018-08-10 01:06:00,-2.652E-01,4C000000*,-701.9,959.745,89,32.6,45.2,0.409,736.3,2.1,1.050*
2018-08-10 01:07:00,-3.775E-01,4C000000*,-702.6,960.150,89,32.6,45.1,0.408,736.0,2.1,1.050*
2018-08-10 01:08:00,-3.983E-01,4C000000*,-702.6,959.745,90,32.7,45.0,0.409,736.0,2.1,1.050*
2018-08-10 01:09:00,-3.140E-01,4C000000*,-702.6,959.341,89,32.6,45.1,0.409,735.7,2.1,1.050*
2018-08-10 01:10:00,-3.413E-01,4C000000*,-702.3,959.341,90,32.6,44.9,0.408,736.0,2.1,1.050*
2018-08-10 01:11:00,-3.118E-01,4C000000*,-702.6,960.150,91,32.7,45.2,0.409,736.0,2.1,1.050*
2018-08-10 01:12:00,-2.411E-01,4C000000*,-703.0,961.767,91,32.6,44.8,0.408,736.0,2.1,1.050*
2018-08-10 01:13:00,-3.686E-01,4C000000*,-703.0,961.767,91,32.6,45.2,0.409,736.0,2.1,1.050*
2018-08-10 01:14:00,-3.079E-01,4C000000*,-702.3,961.362,91,32.6,45.0,0.409,735.7,2.1,1.050*
2018-08-10 01:15:00,-3.195E-01,4C000000*,-702.6,960.958,90,32.6,45.0,0.409,736.0,2.1,1.050*
2018-08-10 01:16:00,-2.822E-01,4C000000*,-702.6,960.958,90,32.7,45.0,0.409,735.7,2.1,1.050*
2018-08-10 01:17:00,-3.060E-01,4C000000*,-702.3,960.150,90,32.7,44.9,0.408,736.0,2.1,1.050*
2018-08-10 01:18:00,-2.535E-01,4C000000*,-702.3,960.150,90,32.6,45.2,0.408,736.0,2.1,1.050*
2018-08-10 01:19:00,-3.881E-01,4C000000*,-702.6,960.150,90,32.7,45.0,0.408,735.7,2.1,1.050*
2018-08-10 01:20:00,-3.387E-01,4C000000*,-703.0,961.362,90,32.7,44.9,0.408,736.0,2.1,1.050*
2018-08-10 01:21:00,-3.220E-01,4C000000*,-702.3,958.937,91,32.7,45.1,0.409,735.7,2.1,1.050*
2018-08-10 01:22:00,-4.362E-01,4C000000*,-702.6,960.554,90,32.6,44.9,0.408,736.0,2.1,1.050*
2018-08-10 01:23:00,-2.999E-01,4C000000*,-702.6,960.554,91,32.7,45.1,0.408,735.7,2.1,1.050*
2018-08-10 01:24:00,-3.058E-01,4C000000*,-702.3,960.554,90,32.7,44.9,0.409,735.7,2.1,1.050*
2018-08-10 01:25:00,-3.735E-01,4C000000*,-703.0,960.150,88,32.7,45.2,0.408,736.0,2.1,1.050*
2018-08-10 01:26:00,-3.622E-01,4C000000*,-702.3,959.341,90,32.6,45.1,0.408,735.7,2.1,1.050*
2018-08-10 01:27:00,-2.814E-01,4C000000*,-703.0,960.150,91,32.7,45.0,0.408,736.0,2.1,1.050*
2018-08-10 01:28:00,-3.359E-01,4C000000*,-702.6,961.362,90,32.7,45.1,0.409,736.0,2.1,1.050*
2018-08-10 01:29:00,-3.519E-01,4C000000*,-703.0,960.150,90,32.7,44.9,0.408,736.0,2.1,1.050*
2018-08-10 01:30:00,-3.408E-01,4C000000*,-702.6,960.554,89,32.7,45.2,0.409,735.7,2.1,1.050*
2018-08-10 01:31:00,-3.510E-01,4C000000*,-702.3,960.554,89,32.7,44.9,0.409,735.7,2.1,1.050*
2018-08-10 01:32:00,-3.572E-01,4C000000*,-702.6,960.958,89,32.7,45.2,0.409,735.7,2.1,1.050*
2018-08-10 01:33:00,-3.099E-01,4C000000*,-702.3,960.150,90,32.7,45.0,0.408,736.0,2.1,1.050*
2018-08-10 01:34:00,-2.739E-01,4C000000*,-702.6,961.767,91,32.7,45.1,0.408,735.7,2.1,1.050*
2018-08-10 01:35:00,-3.901E-01,4C000000*,-702.3,960.150,90,32.7,45.0,0.408,736.0,2.1,1.050*
2018-08-10 01:36:00,-2.742E-01,4C000000*,-702.6,960.958,90,32.7,44.9,0.408,736.0,2.1,1.050*
2018-08-10 01:37:00,-2.480E-01,4C000000*,-703.0,961.362,91,32.7,45.2,0.408,735.7,2.1,1.050*
2018-08-10 01:38:00,-2.446E-01,4C000000*,-702.3,960.554,91,32.7,44.8,0.408,736.0,2.1,1.050*
2018-08-10 01:39:00,-3.538E-01,4C000000*,-703.0,961.362,90,32.7,45.2,0.409,736.0,2.1,1.050*
2018-08-10 01:40:00,-3.716E-01,4C000000*,-702.6,960.958,90,32.7,44.9,0.408,735.7,2.1,1.050*
2018-08-10 01:41:00,-3.758E-01,4C000000*,-702.6,960.554,90,32.8,45.1,0.408,735.7,2.1,1.050*
2018-08-10 01:42:00,-3.899E-01,4C000000*,-702.6,960.554,90,32.7,45.1,0.408,736.0,2.1,1.050*
2018-08-10 01:43:00,-3.568E-01,4C000000*,-702.6,961.362,90,32.8,44.9,0.409,736.0,2.1,1.050*
2018-08-10 01:44:00,-3.428E-01,4C000000*,-702.6,961.767,91,32.8,45.2,0.409,735.7,2.1,1.050*
2018-08-10 01:45:00,-3.369E-01,4C000000*,-702.6,960.958,90,32.7,44.9,0.408,735.7,2.1,1.050*
2018-08-10 01:46:00,-3.330E-01,4C000000*,-702.6,962.171,89,32.8,45.1,0.408,735.7,2.1,1.050*
2018-08-10 01:47:00,-2.980E-01,4C000000*,-702.6,960.554,89,32.8,44.9,0.408,735.7,2.1,1.050*
2018-08-10 01:48:00,-4.085E-01,4C000000*,-702.3,960.958,90,32.7,45.1,0.408,736.0,2.1,1.050*
2018-08-10 01:49:00,-3.221E-01,4C000000*,-702.3,960.958,91,32.7,45.1,0.409,735.7,2.1,1.050*
2018-08-10 01:50:00,-4.369E-01,4C000000*,-702.6,960.958,90,32.7,44.9,0.409,736.0,2.1,1.050*
2018-08-10 01:51:00,-3.595E-01,4C000000*,-702.6,960.958,90,32.7,45.2,0.409,736.0,2.1,1.050*
2018-08-10 01:52:00,-3.887E-01,4C000000*,-702.6,960.958,90,32.8,44.9,0.408,735.7,2.1,1.050*
2018-08-10 01:53:00,-2.780E-01,4C000000*,-702.3,962.171,90,32.7,45.1,0.408,735.7,2.1,1.050*
2018-08-10 01:54:00,-2.642E-01,4C000000*,-702.6,960.958,88,32.7,44.9,0.409,735.7,2.1,1.050*
2018-08-10 01:55:00,-3.454E-01,4C000000*,-702.6,960.958,90,32.8,45.0,0.408,735.7,2.1,1.050*
2018-08-10 01:56:00,-3.246E-01,4C000000*,-702.6,961.767,90,32.8,45.2,0.408,735.7,2.1,1.050*
2018-08-10 01:57:00,-4.244E-01,4C000000*,-702.6,961.362,90,32.7,44.8,0.408,735.7,2.1,1.050*
2018-08-10 01:58:00,-3.562E-01,4C000000*,-702.6,961.362,90,32.8,45.2,0.408,735.7,2.1,1.050*
2018-08-10 01:59:00,-3.264E-01,4C000000*,-702.6,960.958,89,32.8,45.0,0.408,735.7,2.1,1.050*
2018-08-10 02:00:00,-3.350E-01,4C000000*,-701.9,960.958,90,32.9,45.0,0.408,735.7,2.1,1.050*
2018-08-10 02:01:00,-3.799E-01,4C000000*,-702.6,961.767,89,32.9,45.1,0.408,735.7,2.1,1.050*
2018-08-10 02:02:00,-3.116E-01,4C000000*,-702.6,961.362,89,32.8,45.0,0.408,735.7,2.1,1.050*
2018-08-10 02:03:00,-3.757E-01,4C000000*,-702.6,961.362,89,32.8,45.2,0.409,735.7,2.1,1.050*
2018-08-10 02:04:00,-3.473E-01,4C000000*,-702.6,960.150,90,32.9,45.0,0.408,735.7,2.1,1.050*
2018-08-10 02:05:00,-3.123E-01,4C000000*,-702.6,960.958,90,32.8,45.1,0.408,735.7,2.1,1.050*
2018-08-10 02:06:00,-3.412E-01,4C000000*,-702.3,960.958,90,32.8,44.8,0.408,735.7,2.1,1.050*
2018-08-10 02:07:00,-3.329E-01,4C000000*,-702.6,962.171,89,32.9,45.1,0.408,735.7,2.1,1.050*
2018-08-10 02:08:00,-2.764E-01,4C000000*,-702.6,960.150,90,32.9,45.1,0.409,735.7,2.1,1.050*
2018-08-10 02:09:00,-2.242E-01,4C000000*,-702.6,960.554,89,32.9,45.0,0.408,735.7,2.1,1.050*
2018-08-10 02:10:00,-3.078E-01,4C000000*,-702.3,961.767,90,32.9,45.1,0.409,735.7,2.1,1.050*
2018-08-10 02:11:00,-3.858E-01,4C000000*,-702.6,961.362,89,32.9,44.9,0.408,735.7,2.1,1.050*
2018-08-10 02:12:00,-3.036E-01,4C000000*,-702.6,960.554,89,32.9,45.1,0.408,735.7,2.1,1.050*
2018-08-10 02:13:00,-3.573E-01,4C000000*,-702.6,960.554,89,32.9,44.9,0.409,735.7,2.1,1.050*
2018-08-10 02:14:00,-3.506E-01,4C000000*,-702.3,960.958,91,32.9,45.2,0.408,735.7,2.1,1.050*
2018-08-10 02:15:00,-3.232E-01,4C000000*,-702.6,959.745,90,32.9,45.1,0.408,735.7,2.1,1.050*
2018-08-10 02:16:00,-3.503E-01,4C000000*,-702.3,959.745,89,33.0,45.0,0.409,735.7,2.1,1.050*
2018-08-10 02:17:00,-3.563E-01,4C000000*,-702.6,960.554,91,32.9,45.0,0.408,735.7,2.1,1.050*
2018-08-10 02:18:00,-3.181E-01,4C000000*,-702.6,960.150,90,32.9,44.9,0.409,735.7,2.1,1.050*
2018-08-10 02:19:00,-3.551E-01,4C000000*,-702.6,961.767,90,33.0,45.2,0.408,735.7,2.1,1.050*
2018-08-10 02:20:00,-2.760E-01,4C000000*,-702.6,960.958,90,33.0,44.8,0.408,735.7,2.1,1.050*
2018-08-10 02:21:00,-3.487E-01,4C000000*,-702.3,960.958,91,33.0,45.2,0.408,735.7,2.1,1.050*
2018-08-10 02:22:00,-3.339E-01,4C000000*,-702.6,960.554,89,32.9,45.0,0.408,735.7,2.1,1.050*
2018-08-10 02:23:00,-2.617E-01,4C000000*,-702.3,960.958,90,33.0,45.0,0.408,735.7,2.1,1.050*
2018-08-10 02:24:00,-3.422E-01,4C000000*,-702.6,961.362,91,33.0,45.0,0.408,735.4,2.1,1.050*
2018-08-10 02:25:00,-3.640E-01,4C000000*,-702.6,961.362,90,33.0,44.9,0.408,735.7,2.1,1.050*
2018-08-10 02:26:00,-3.008E-01,4C000000*,-702.6,961.362,89,33.0,45.2,0.408,735.4,2.1,1.050*
2018-08-10 02:27:00,-3.838E-01,4C000000*,-702.3,960.150,88,33.0,44.9,0.409,735.7,2.1,1.050*
2018-08-10 02:28:00,-2.364E-01,4C000000*,-702.6,960.554,90,33.1,45.2,0.408,735.7,2.1,1.050*
2018-08-10 02:29:00,-2.894E-01,4C000000*,-702.3,959.745,91,33.1,44.9,0.408,735.7,2.1,1.050*
2018-08-10 02:30:00,-2.647E-01,4C000000*,-702.6,960.554,90,33.1,45.0,0.409,735.7,2.1,1.050*
2018-08-10 02:31:00,-3.932E-01,4C000000*,-702.6,962.575,91,33.1,45.1,0.408,735.7,2.1,1.050*
2018-08-10 02:32:00,-3.809E-01,4C000000*,-702.3,961.767,90,33.1,45.0,0.408,735.7,2.1,1.050*
2018-08-10 02:33:00,-3.401E-01,4C000000*,-702.6,960.554,90,33.1,45.2,0.408,735.7,2.1,1.050*
2018-08-10 02:34:00,-3.190E-01,4C000000*,-702.6,960.554,90,33.1,44.9,0.408,735.7,2.1,1.050*
2018-08-10 02:35:00,-3.375E-01,4C000000*,-702.3,961.362,88,33.1,45.2,0.408,735.7,2.1,1.050*
2018-08-10 02:36:00,-2.566E-01,4C000000*,-702.6,960.958,90,33.1,45.0,0.408,735.4,2.1,1.050*
2018-08-10 02:37:00,-3.657E-01,4C000000*,-702.3,961.362,88,33.1,45.0,0.408,735.7,2.1,1.050*
2018-08-10 02:38:00,-3.017E-01,4C000000*,-702.6,960.150,90,33.1,45.0,0.408,735.7,2.1,1.050*
2018-08-10 02:39:00,-2.855E-01,4C000000*,-702.6,960.554,89,33.1,44.9,0.408,735.7,2.1,1.050*
2018-08-10 02:40:00,-4.017E-01,4C000000*,-702.6,961.767,90,33.2,45.2,0.408,735.4,2.1,1.050*
2018-08-10 02:41:00,-3.094E-01,4C000000*,-702.6,960.958,90,33.2,44.9,0.408,735.7,2.1,1.050*
2018-08-10 02:42:00,-3.468E-01,4C000000*,-702.3,960.958,89,33.1,45.2,0.408,735.7,2.1,1.050*
2018-08-10 02:43:00,-3.657E-01,4C000000*,-702.6,959.341,89,33.2,44.9,0.408,735.7,2.1,1.050*
2018-08-10 02:44:00,-3.171E-01,4C000000*,-702.6,961.362,89,33.1,45.1,0.408,735.7,2.1,1.050*
2018-08-10 02:45:00,-3.028E-01,4C000000*,-702.6,961.362,90,33.2,45.1,0.409,735.4,2.1,1.050*
2018-08-10 02:46:00,-3.297E-01,4C000000*,-702.6,960.958,90,33.2,45.0,0.409,735.7,2.1,1.050*
2018-08-10 02:47:00,-2.842E-01,4C000000*,-702.6,960.958,89,33.2,45.2,0.409,735.7,2.1,1.050*
2018-08-10 02:48:00,-3.842E-01,4C000000*,-702.6,960.150,90,33.2,44.9,0.409,735.7,2.1,1.050*
2018-08-10 02:49:00,-3.445E-01,4C000000*,-702.6,960.958,90,33.2,45.2,0.408,735.7,2.1,1.050*
2018-08-10 02:50:00,-3.445E-01,4C000000*,-702.3,959.745,89,33.2,44.9,0.408,735.7,2.1,1.050*
2018-08-10 02:51:00,-2.743E-01,4C000000*,-702.3,960.554,91,33.3,45.2,0.408,735.7,2.1,1.050*
2018-08-10 02:52:00,-3.650E-01,4C000000*,-702.3,960.554,89,33.2,45.1,0.408,735.4,2.1,1.050*
2018-08-10 02:53:00,-3.229E-01,4C000000*,-702.6,959.745,89,33.3,45.0,0.409,735.7,2.1,1.050*
2018-08-10 02:54:00,-3.375E-01,4C000000*,-701.9,959.745,88,33.3,45.1,0.409,735.4,2.1,1.050*
2018-08-10 02:55:00,-3.813E-01,4C000000*,-702.3,961.362,90,33.2,44.9,0.409,735.7,2.1,1.050*
2018-08-10 02:56:00,-3.439E-01,4C000000*,-702.3,960.554,90,33.3,45.2,0.408,735.4,2.1,1.050*
2018-08-10 02:57:00,-2.618E-01,4C000000*,-702.6,960.150,90,33.3,44.9,0.408,735.4,2.1,1.050*
2018-08-10 02:58:00,-2.599E-01,4C000000*,-703.0,961.362,91,33.3,45.2,0.409,735.7,2.1,1.050*
2018-08-10 02:59:00,-3.224E-01,4C000000*,-702.6,960.554,91,33.3,45.0,0.408,735.4,2.1,1.050*
2018-08-10 03:00:00,-3.553E-01,4C000000*,-702.3,960.958,89,33.3,45.0,0.409,735.4,2.1,1.050*
2018-08-10 03:01:00,-3.793E-01,4C000000*,-702.6,961.362,90,33.3,45.1,0.408,735.4,2.1,1.050*
2018-08-10 03:02:00,-3.505E-01,4C000000*,-702.6,962.171,90,33.2,44.9,0.409,735.4,2.1,1.050*
2018-08-10 03:03:00,-3.454E-01,4C000000*,-702.6,960.958,90,33.3,45.2,0.408,735.4,2.1,1.050*
2018-08-10 03:04:00,-3.353E-01,4C000000*,-702.6,961.362,88,33.2,44.9,0.408,735.7,2.1,1.050*
2018-08-10 03:05:00,-3.803E-01,4C000000*,-702.6,960.554,88,33.3,45.2,0.408,735.4,2.1,1.050*
2018-08-10 03:06:00,-2.930E-01,4C000000*,-701.9,960.554,87,33.3,45.0,0.409,735.4,2.1,1.050*
2018-08-10 03:07:00,-3.401E-01,4C000000*,-702.6,960.958,91,33.3,45.0,0.408,735.4,2.1,1.050*
2018-08-10 03:08:00,-3.346E-01,4C000000*,-702.6,961.362,91,33.3,45.0,0.408,735.4,2.1,1.050*
2018-08-10 03:09:00,-2.393E-01,4C000000*,-702.3,960.958,90,33.3,44.9,0.409,735.7,2.1,1.050*
2018-08-10 03:10:00,-3.879E-01,4C000000*,-702.3,960.554,89,33.4,45.3,0.408,735.4,2.1,1.050*
2018-08-10 03:11:00,-3.990E-01,4C000000*,-702.3,960.554,91,33.3,44.9,0.408,735.4,2.1,1.050*
2018-08-10 03:12:00,-2.820E-01,4C000000*,-702.3,960.150,90,33.3,45.2,0.408,735.4,2.1,1.050*
2018-08-10 03:13:00,-3.638E-01,4C000000*,-702.6,961.362,91,33.3,45.0,0.409,735.4,2.1,1.050*
2018-08-10 03:14:00,-3.738E-01,4C000000*,-702.6,961.362,90,33.4,45.1,0.408,735.4,2.1,1.050*
2018-08-10 03:15:00,-4.483E-01,4C000000*,-702.6,960.958,89,33.3,45.1,0.408,735.4,2.1,1.050*
2018-08-10 03:16:00,-3.183E-01,4C000000*,-702.6,961.362,90,33.3,44.9,0.408,735.4,2.1,1.050*
2018-08-10 03:17:00,-2.550E-01,4C000000*,-702.6,960.554,89,33.3,45.2,0.409,735.4,2.1,1.050*
2018-08-10 03:18:00,-3.411E-01,4C000000*,-702.3,960.958,90,33.3,44.9,0.408,735.4,2.1,1.050*
2018-08-10 03:19:00,-2.990E-01,4C000000*,-702.6,960.958,91,33.3,45.1,0.409,735.4,2.1,1.050*
2018-08-10 03:20:00,-3.050E-01,4C000000*,-702.6,962.171,88,33.4,44.9,0.409,735.4,2.1,1.050*
2018-08-10 03:21:00,-2.475E-01,4C000000*,-702.6,960.150,90,33.4,45.1,0.409,735.4,2.1,1.050*
2018-08-10 03:22:00,-3.623E-01,4C000000*,-702.6,961.362,91,33.4,45.1,0.408,735.4,2.1,1.050*
2018-08-10 03:23:00,-3.421E-01,4C000000*,-702.6,961.362,90,33.3,44.9,0.409,735.4,2.1,1.050*
2018-08-10 03:24:00,-3.342E-01,4C000000*,-702.6,960.554,90,33.3,45.2,0.408,735.4,2.1,1.050*
2018-08-10 03:25:00,-3.287E-01,4C000000*,-702.6,961.767,89,33.3,44.9,0.409,735.4,2.1,1.050*
2018-08-10 03:26:00,-3.182E-01,4C000000*,-702.6,960.554,91,33.4,45.2,0.408,735.4,2.1,1.050*
2018-08-10 03:27:00,-3.173E-01,4C000000*,-702.3,961.767,89,33.4,45.0,0.408,735.1,2.1,1.050*
2018-08-10 03:28:00,-3.420E-01,4C000000*,-703.0,960.150,90,33.3,45.1,0.408,735.4,2.1,1.050*
2018-08-10 03:29:00,-2.648E-01,4C000000*,-702.6,961.362,91,33.3,45.1,0.408,735.1,2.1,1.050*
2018-08-10 03:30:00,-3.552E-01,4C000000*,-702.3,960.150,91,33.3,45.0,0.408,735.4,2.1,1.050*
2018-08-10 03:31:00,-2.996E-01,4C000000*,-702.3,960.150,90,33.3,45.1,0.408,735.1,2.1,1.050*
2018-08-10 03:32:00,-3.684E-01,4C000000*,-702.6,961.362,89,33.3,44.9,0.408,735.1,2.1,1.050*
2018-08-10 03:33:00,-4.127E-01,4C000000*,-702.3,961.362,89,33.4,45.1,0.408,735.1,2.1,1.050*
2018-08-10 03:34:00,-3.643E-01,4C000000*,-702.3,961.767,91,33.3,44.9,0.408,735.1,2.1,1.050*
2018-08-10 03:35:00,-3.483E-01,4C000000*,-702.6,960.554,90,33.4,45.2,0.408,735.4,2.1,1.050*
2018-08-10 03:36:00,-3.634E-01,4C000000*,-702.3,960.554,89,33.4,45.1,0.408,735.1,2.1,1.050*
2018-08-10 03:37:00,-3.452E-01,4C000000*,-702.6,960.958,91,33.4,45.0,0.408,735.1,2.1,1.050*
2018-08-10 03:38:00,-2.538E-01,4C000000*,-702.6,959.341,90,33.4,45.0,0.408,735.1,2.1,1.050*
2018-08-10 03:39:00,-3.355E-01,4C000000*,-702.6,960.554,90,33.3,44.9,0.408,735.4,2.1,1.050*
2018-08-10 03:40:00,-2.915E-01,4C000000*,-702.6,960.958,90,33.4,45.2,0.409,735.1,2.1,1.050*
2018-08-10 03:41:00,-3.079E-01,4C000000*,-702.3,960.958,88,33.3,44.9,0.408,735.1,2.1,1.050*
2018-08-10 03:42:00,-3.257E-01,4C000000*,-702.3,960.554,91,33.3,45.2,0.408,735.4,2.1,1.050*
2018-08-10 03:43:00,-3.549E-01,4C000000*,-702.3,960.958,90,33.3,45.0,0.408,735.1,2.1,1.050*
2018-08-10 03:44:00,-3.560E-01,4C000000*,-702.6,960.150,89,33.4,45.1,0.409,735.4,2.1,1.050*
2018-08-10 03:45:00,-2.817E-01,4C000000*,-702.6,961.767,89,33.4,45.0,0.408,735.1,2.1,1.050*
2018-08-10 03:46:00,-3.708E-01,4C000000*,-702.6,960.554,89,33.4,45.0,0.408,735.4,2.1,1.050*
2018-08-10 03:47:00,-3.706E-01,4C000000*,-702.6,961.362,89,33.4,45.2,0.409,735.1,2.1,1.050*
2018-08-10 03:48:00,-3.268E-01,4C000000*,-702.6,961.767,89,33.4,44.8,0.409,735.1,2.1,1.050*
2018-08-10 03:49:00,-3.635E-01,4C000000*,-702.6,960.958,90,33.4,45.2,0.408,735.4,2.1,1.050*
2018-08-10 03:50:00,-3.316E-01,4C000000*,-702.6,959.341,89,33.4,44.9,0.409,735.1,2.1,1.050*
2018-08-10 03:51:00,-3.143E-01,4C000000*,-702.6,960.958,91,33.4,45.0,0.408,735.4,2.1,1.050*
2018-08-10 03:52:00,-2.896E-01,4C000000*,-702.3,962.171,90,33.4,45.0,0.408,735.1,2.1,1.050*
2018-08-10 03:53:00,-3.003E-01,4C000000*,-702.6,960.150,90,33.4,44.9,0.408,735.1,2.1,1.050*
2018-08-10 03:54:00,-3.817E-01,4C000000*,-702.6,960.554,89,33.4,45.2,0.408,735.1,2.1,1.050*
2018-08-10 03:55:00,-3.476E-01,4C000000*,-702.6,960.150,89,33.4,44.9,0.408,735.1,2.1,1.050*
2018-08-10 03:56:00,-3.414E-01,4C000000*,-702.6,960.150,90,33.4,45.2,0.408,735.1,2.1,1.050*
2018-08-10 03:57:00,-3.325E-01,4C000000*,-702.3,961.362,91,33.4,45.0,0.408,735.1,2.1,1.050*
2018-08-10 03:58:00,-3.476E-01,4C000000*,-702.3,960.958,89,33.4,45.1,0.409,735.1,2.1,1.050*
2018-08-10 03:59:00,-2.982E-01,4C000000*,-702.6,960.554,88,33.5,45.0,0.408,735.1,2.1,1.050*
2018-08-10 04:00:00,-3.211E-01,4C000000*,-702.6,960.958,90,33.5,45.0,0.408,735.4,2.1,1.050*
2018-08-10 04:01:00,-3.234E-01,4C000000*,-702.3,961.362,89,33.5,45.2,0.408,735.1,2.1,1.050*
2018-08-10 04:02:00,-3.576E-01,4C000000*,-702.6,960.958,90,33.4,44.9,0.408,735.1,2.1,1.050*
2018-08-10 04:03:00,-3.295E-01,4C000000*,-702.3,961.767,90,33.4,45.2,0.408,735.1,2.1,1.050*
2018-08-10 04:04:00,-3.396E-01,4C000000*,-702.6,960.958,90,33.4,44.9,0.408,735.1,2.1,1.050*
2018-08-10 04:05:00,-3.588E-01,4C000000*,-702.6,959.745,90,33.5,45.1,0.408,735.1,2.1,1.050*
2018-08-10 04:06:00,-3.248E-01,4C000000*,-702.3,960.554,90,33.4,45.0,0.408,735.1,2.1,1.050*
2018-08-10 04:07:00,-2.759E-01,4C000000*,-702.6,960.150,89,33.5,45.0,0.408,735.1,2.1,1.050*
2018-08-10 04:08:00,-2.260E-01,4C000000*,-702.6,960.150,91,33.5,45.1,0.408,735.1,2.1,1.050*
2018-08-10 04:09:00,-2.915E-01,4C000000*,-702.3,961.767,91,33.4,44.9,0.408,735.1,2.1,1.050*
2018-08-10 04:10:00,-3.356E-01,4C000000*,-702.6,960.150,90,33.5,45.2,0.408,735.1,2.1,1.050*
2018-08-10 04:11:00,-3.705E-01,4C000000*,-702.3,960.958,90,33.5,44.9,0.408,735.1,2.1,1.050*
2018-08-10 04:12:00,-3.325E-01,4C000000*,-703.0,960.150,90,33.5,45.2,0.408,735.1,2.1,1.050*
2018-08-10 04:13:00,-3.128E-01,4C000000*,-702.6,961.362,90,33.5,45.1,0.408,735.1,2.1,1.050*
2018-08-10 04:14:00,-3.891E-01,4C000000*,-702.3,961.767,88,33.5,45.0,0.408,735.1,2.1,1.050*